Location: USNO
(38.9242°N, 77.0663°W)
Time: 16:43:30
(UTC-04:00)

Envisat - Pass Details

Date: 08 October 2017
Orbit: 764 x 766 km, 98.2° (Epoch: 23 October)

Event Time Altitude Azimuth Distance (km) Brightness Sun altitude
Exits shadow 22:21:38 14° 287° (WNW) 2,062 5.7 -42.4°
Drops below altitude 10° 22:23:06 10° 303° (WNW) 2,306 6.1 -42.6°
Sets 22:26:29 0° 327° (NNW) 3,238 6.9 -43.2°
